Location: *
(34.8620°S, 39.3380°E)
Time: 18:40:45
(UTC+00:00)

Meteor 2-5 Rocket - Pass Details

Date: 27 July 2021
Orbit: 832 x 912 km, 81.2° (Epoch: 21 September)

Event Time Altitude Azimuth Distance (km) Brightness Sun altitude
Rises 02:16:43 0° 354° (N) 3,433 6.9 -25.4°
Reaches altitude 10° 02:19:08 10° 353° (N) 2,492 6.1 -24.9°
Maximum altitude 02:24:48 90° 87° (E) 860 3.6 -23.8°
Drops below altitude 10° 02:30:27 10° 172° (S) 2,482 6.1 -22.6°
Sets 02:32:52 0° 171° (S) 3,418 6.9 -22.1°
